Satellite-Ground Cal/Val Region Overpasses Predictions

Prediction of Satellite NPP Overpassing Cal/Val Region: PacNW

Region Location: (Latitude: 10.00, Longitude: 139.50) to (Latitude: 22.70, Longitude: 165.60).

Table of predicted overpasses for the next 14.0 days since TLE Epoch: 1/10/2014
Interval Starting Time Starting Location Ending Time Ending Location
1 01/10/2014 14:36:57 ( 18.57, 165.59) 01/10/2014 14:39:22 ( 10.05, 163.59)
2 01/10/2014 16:17:17 ( 22.67, 141.22) 01/10/2014 16:19:17 ( 15.63, 139.51)
3 01/11/2014 03:26:23 ( 10.03, 148.72) 01/11/2014 03:29:58 ( 22.65, 145.71)
4 01/11/2014 15:58:17 ( 22.65, 145.98) 01/11/2014 16:01:52 ( 10.03, 142.96)
5 01/12/2014 03:07:23 ( 10.05, 153.47) 01/12/2014 03:10:58 ( 22.67, 150.46)
6 01/12/2014 15:39:15 ( 22.69, 150.75) 01/12/2014 15:42:51 ( 10.01, 147.72)
7 01/13/2014 02:48:21 ( 10.01, 158.24) 01/13/2014 02:51:57 ( 22.69, 155.21)
8 01/13/2014 15:20:15 ( 22.67, 155.50) 01/13/2014 15:23:50 ( 10.05, 152.48)
9 01/14/2014 02:29:21 ( 10.04, 162.99) 01/14/2014 02:32:56 ( 22.65, 159.98)
10 01/14/2014 15:01:14 ( 22.64, 160.25) 01/14/2014 15:04:49 ( 10.02, 157.24)
11 01/15/2014 02:12:56 ( 19.22, 165.59) 01/15/2014 02:13:55 ( 22.68, 164.73)
12 01/15/2014 03:51:49 ( 10.00, 142.38) 01/15/2014 03:55:15 ( 22.10, 139.50)
13 01/15/2014 14:42:13 ( 22.67, 165.02) 01/15/2014 14:45:48 ( 10.05, 162.00)
14 01/15/2014 16:23:43 ( 22.67, 139.64) 01/15/2014 16:23:52 ( 22.15, 139.51)
15 01/16/2014 03:32:49 ( 10.03, 147.14) 01/16/2014 03:36:24 ( 22.65, 144.12)
16 01/16/2014 16:04:42 ( 22.64, 144.39) 01/16/2014 16:08:17 ( 10.02, 141.38)
17 01/17/2014 03:13:47 ( 10.00, 151.90) 01/17/2014 03:17:23 ( 22.68, 148.88)
18 01/17/2014 15:45:41 ( 22.67, 149.16) 01/17/2014 15:49:16 ( 10.05, 146.15)
19 01/18/2014 02:54:47 ( 10.03, 156.65) 01/18/2014 02:58:22 ( 22.65, 153.64)
20 01/18/2014 15:26:40 ( 22.64, 153.91) 01/18/2014 15:30:15 ( 10.02, 150.90)
21 01/19/2014 02:35:45 ( 10.00, 161.42) 01/19/2014 02:39:21 ( 22.68, 158.39)
22 01/19/2014 15:07:39 ( 22.67, 158.68) 01/19/2014 15:11:14 ( 10.05, 155.66)
23 01/20/2014 02:17:28 ( 12.56, 165.59) 01/20/2014 02:20:20 ( 22.66, 163.16)
24 01/20/2014 03:58:15 ( 10.04, 140.80) 01/20/2014 03:59:49 ( 15.56, 139.51)
25 01/20/2014 14:48:38 ( 22.69, 163.44) 01/20/2014 14:52:14 ( 10.01, 160.42)
26 01/21/2014 03:39:13 ( 10.01, 145.56) 01/21/2014 03:42:49 ( 22.69, 142.53)
27 01/21/2014 14:32:41 ( 11.86, 165.60) 01/21/2014 14:33:12 ( 10.04, 165.18)
28 01/21/2014 16:11:07 ( 22.66, 142.82) 01/21/2014 16:14:42 ( 10.04, 139.81)
29 01/22/2014 03:20:13 ( 10.05, 150.31) 01/22/2014 03:23:48 ( 22.67, 147.30)
30 01/22/2014 15:52:06 ( 22.68, 147.58) 01/22/2014 15:55:41 ( 10.06, 144.57)
31 01/23/2014 03:01:11 ( 10.03, 155.08) 01/23/2014 03:04:46 ( 22.65, 152.06)
32 01/23/2014 15:33:04 ( 22.70, 152.35) 01/23/2014 15:36:40 ( 10.02, 149.32)


NCC Satellite Cal/Val Overpasses Prediction Service
